You are listening to:
LHBP Info - Budapest, Hungary

LHBP 240600Z 36006KT CAVOK M08/M10 Q1034 NOSIG

If stream doesn't start automatically press the play button
If stream stops then reload player then press play